Location: Warner Observatory
(35.1353°N, 89.5455°W)
Time: 19:14:06
(UTC-06:00)

Amateur Radio Satellites - All Passes

Search period start: 20 December 2014 18:44
Search period end: 21 December 2014 18:44
Location: Warner Observatory, 35.1353°N, 89.5455°W

Satellite Date Start Highest point End Downlink Frequencies (MHz)
Time Altitude Azimuth
Cubesat XI-IV 20 Dec 19:01:13 19:03:39 13° 268° (W) 19:06:06 437.490
PRISM 20 Dec 19:01:15 19:04:38 25° 290° (WNW) 19:08:00 437.425
CANX-2 20 Dec 19:03:23 19:05:37 14° 67° (ENE) 19:07:52 2200.000
ISS 20 Dec 19:21:45 19:24:07 18° 31° (NNE) 19:26:28 145.825
CUSAT 1 20 Dec 19:22:14 19:29:06 31° 73° (ENE) 19:36:23 437.405
COMPASS 1 20 Dec 19:24:41 19:27:16 16° 68° (ENE) 19:29:52 437.405
SEEDS 20 Dec 19:29:32 19:32:47 22° 70° (ENE) 19:36:04 437.485
BRITE-PL 20 Dec 19:31:15 19:34:51 28° 72° (ENE) 19:38:25 437.365/2234.400
CUTE 1.7 + AOD 2 20 Dec 19:32:37 19:36:14 28° 71° (ENE) 19:39:53 437.475
CUBESAT XI-V 20 Dec 19:39:57 19:43:34 23° 291° (WNW) 19:47:11 437.345
DX 1 20 Dec 19:49:54 19:50:44 11° 64° (ENE) 19:51:34 434.975-435.025
STRAND 1 20 Dec 19:50:41 19:54:53 27° 292° (WNW) 19:59:06 437.568
SO-50 20 Dec 19:51:50 19:55:30 25° 111° (ESE) 19:59:16 436.795
GOMX 1 20 Dec 19:57:12 20:01:05 39° 73° (ENE) 20:04:58 467.674
HO-68 20 Dec 20:06:46 20:13:58 89° 74° (ENE) 20:21:11 435.675
Oscar 11 20 Dec 20:09:25 20:12:50 23° 70° (ENE) 20:16:15 145.826/435.025
DANDE 20 Dec 20:13:28 20:21:17 62° 80° (E) 20:29:53 436.750
UKube-1 20 Dec 20:18:06 20:21:27 22° 69° (ENE) 20:24:48 .
DOVE 4 20 Dec 20:21:59 20:26:02 57° 75° (ENE) 20:30:08 437.250
AAUSAT CUBESAT 2 20 Dec 20:22:59 20:27:09 71° 76° (ENE) 20:31:22 437.432
CUBEBUG 2 20 Dec 20:29:59 20:33:17 23° 70° (ENE) 20:36:39 437.445
CANX-2 20 Dec 20:37:07 20:41:09 42° 261° (W) 20:45:14 2200.000
ZACube-1 20 Dec 20:40:15 20:43:28 22° 69° (ENE) 20:46:43 437.345
VELOX 1 20 Dec 20:43:31 20:45:48 14° 66° (ENE) 20:48:06 145.980
CINEMA 3 20 Dec 20:46:31 20:50:36 64° 75° (ENE) 20:54:47 145.822/145.860
RS-15 20 Dec 20:52:53 21:04:16 78° 60° (ENE) 21:16:10 29.354- 29.394
ISS 20 Dec 20:57:43 21:00:50 43° 227° (SW) 21:03:57 145.825
COMPASS 1 20 Dec 20:58:47 21:02:39 36° 262° (W) 21:06:34 437.405
CUSAT 1 20 Dec 21:04:38 21:12:22 56° 267° (W) 21:20:35 437.405
SEEDS 20 Dec 21:04:55 21:08:27 26° 264° (W) 21:12:01 437.485
FUNcube-1 20 Dec 21:06:06 21:10:02 43° 74° (ENE) 21:14:04 145.935
UWE-3 20 Dec 21:07:02 21:11:05 55° 75° (ENE) 21:15:15 435.000/436.395/437.385
CUTE 1.7 + AOD 2 20 Dec 21:08:58 21:12:07 20° 265° (W) 21:15:19 437.475
BRITE-PL 20 Dec 21:10:35 21:13:25 18° 265° (W) 21:16:13 437.365/2234.400
DELFI C3 20 Dec 21:14:14 21:18:18 70° 259° (W) 21:22:26 145.870
50 SAT 20 Dec 21:16:32 21:19:50 25° 71° (ENE) 21:23:09 437.505
PCSat 20 Dec 21:21:39 21:23:05 11° 45° (NE) 21:24:31 145.827
DX 1 20 Dec 21:22:08 21:26:25 61° 259° (WSW) 21:30:43 434.975-435.025
AISAT 20 Dec 21:24:38 21:28:47 42° 73° (ENE) 21:32:57 437.250
BEESAT 3 20 Dec 21:27:01 21:30:23 23° 52° (NE) 21:33:42 437.485
CUBEBUG 1 20 Dec 21:31:35 21:34:26 17° 68° (ENE) 21:37:17 437.445
SO-50 20 Dec 21:31:55 21:35:53 30° 307° (NW) 21:39:59 436.795
AIST 2 20 Dec 21:35:37 21:37:39 13° 47° (NE) 21:39:41 435.215
GOMX 1 20 Dec 21:37:40 21:39:25 12° 267° (W) 21:41:10 467.674
HUMSAT D 20 Dec 21:38:54 21:42:57 63° 76° (ENE) 21:47:05 437.325/437.525
ANTELSAT 20 Dec 21:40:03 21:43:20 19° 94° (E) 21:46:37 437.575/2403.000
Oscar 11 20 Dec 21:45:16 21:48:51 25° 264° (W) 21:52:28 145.826/435.025
QB50P1 20 Dec 21:47:11 21:48:42 12° 92° (E) 21:50:13 145.935-145.965
UKube-1 20 Dec 21:53:47 21:57:27 27° 263° (W) 22:01:07 .
DANDE 20 Dec 21:57:53 22:04:21 28° 272° (W) 22:11:17 436.750
HO-68 20 Dec 21:59:16 22:02:24 13° 269° (W) 22:05:32 435.675
BEESAT 2 20 Dec 22:06:29 22:10:36 54° 58° (ENE) 22:14:39 435.950
CUBEBUG 2 20 Dec 22:06:34 22:09:53 23° 265° (W) 22:13:16 437.445
POPSAT HIP 1 20 Dec 22:14:06 22:17:39 25° 97° (E) 22:21:12 437.405
TIGRISAT 20 Dec 22:14:28 22:18:58 44° 99° (E) 22:23:28 435.000
ZACube-1 20 Dec 22:16:16 22:19:41 25° 264° (W) 22:23:11 437.345
VELOX 1 20 Dec 22:17:43 22:21:57 46° 260° (W) 22:26:13 145.980
ESTCUBE 1 20 Dec 22:20:31 22:25:01 69° 76° (ENE) 22:29:32 437.505/2401.250
TISAT 1 20 Dec 22:34:38 22:37:44 20° 69° (ENE) 22:40:50 437.305
SPROUT 20 Dec 22:38:27 22:41:39 21° 69° (ENE) 22:44:50 437.525
BUGSAT 1 20 Dec 22:39:50 22:43:39 39° 99° (E) 22:47:29 437.445
DUCHIFAT 1 20 Dec 22:41:30 22:45:41 55° 100° (E) 22:49:51 145.980
UNISAT 6 20 Dec 22:43:34 22:48:18 85° 283° (WNW) 22:53:02 437.425
FUNcube-1 20 Dec 22:44:58 22:46:37 12° 268° (W) 22:48:17 145.935
50 SAT 20 Dec 22:52:03 22:54:59 20° 265° (W) 22:57:57 437.505
YUBILEINY 20 Dec 22:52:33 23:00:22 38° 87° (E) 23:08:09 435.215
QB50P2 20 Dec 22:55:08 22:59:26 84° 103° (ESE) 23:03:43 145.880/145.840
PCSat 20 Dec 23:01:56 23:07:22 78° 63° (ENE) 23:12:46 145.827
AISAT 20 Dec 23:03:11 23:05:34 14° 267° (W) 23:07:57 437.250
POLYITAN 1 20 Dec 23:04:03 23:08:21 76° 283° (WNW) 23:12:38 437.675
BEESAT 3 20 Dec 23:04:58 23:08:30 27° 248° (WSW) 23:11:59 437.485
NANOSAT C BR1 20 Dec 23:06:07 23:10:22 73° 284° (WNW) 23:14:37 145.865
CUBEBUG 1 20 Dec 23:06:29 23:10:30 35° 262° (W) 23:14:31 437.445
RS-15 20 Dec 23:07:01 23:15:30 25° 257° (WSW) 23:24:18 29.354- 29.394
AIST 2 20 Dec 23:12:26 23:16:40 61° 244° (WSW) 23:20:49 435.215
ANTELSAT 20 Dec 23:15:50 23:20:12 38° 288° (WNW) 23:24:32 437.575/2403.000
QB50P1 20 Dec 23:20:42 23:24:48 47° 286° (WNW) 23:28:54 145.935-145.965
SWISSCUBE 20 Dec 23:27:31 23:29:56 14° 65° (ENE) 23:32:21 437.505
ITUPSAT 1 20 Dec 23:28:27 23:30:32 13° 64° (ENE) 23:32:37 437.325
BEESAT 2 20 Dec 23:47:15 23:48:19 11° 253° (WSW) 23:49:23 435.950
POPSAT HIP 1 20 Dec 23:50:05 23:53:24 22° 290° (WNW) 23:56:43 437.405
BEESAT 20 Dec 23:50:59 23:54:42 23° 68° (ENE) 23:58:25 436.000
TIGRISAT 20 Dec 23:52:21 23:55:19 17° 293° (WNW) 23:58:18 435.000
TISAT 1 21 Dec 00:09:46 00:13:22 27° 263° (W) 00:16:58 437.305
SPROUT 21 Dec 00:13:53 00:17:32 27° 263° (W) 00:21:13 437.525
BUGSAT 1 21 Dec 00:16:47 00:18:47 13° 293° (WNW) 00:20:47 437.445
DUCHIFAT 1 21 Dec 00:19:50 00:21:02 11° 295° (WNW) 00:22:14 145.980
O/OREOS (USA 219) 21 Dec 00:24:06 00:28:33 86° 290° (WNW) 00:33:02 437.305
AUBIESAT-1 21 Dec 00:34:03 00:38:29 38° 67° (ENE) 00:43:00 437.475
Oscar 19 21 Dec 00:44:36 00:49:00 27° 96° (E) 00:53:22 437.125/150
PCSat 21 Dec 00:48:37 00:50:01 11° 258° (WSW) 00:51:25 145.827
YUBILEINY 21 Dec 00:48:55 00:56:59 41° 284° (WNW) 01:05:05 435.215
STARS 21 Dec 00:48:57 00:49:46 10° 64° (ENE) 00:50:34 437.465
KKS-1 21 Dec 00:50:55 00:53:53 18° 67° (ENE) 00:56:52 437.445
M-CUBED/EXP-1 PRIME 21 Dec 00:59:27 01:04:15 79° 72° (ENE) 01:09:11 437.505
ITAMSAT 1 21 Dec 01:02:35 01:05:03 13° 92° (E) 01:07:30 435.822/435.867
SWISSCUBE 21 Dec 01:02:35 01:07:17 55° 259° (W) 01:12:00 437.505
ITUPSAT 1 21 Dec 01:03:07 01:07:52 61° 259° (W) 01:12:38 437.325
BEESAT 21 Dec 01:28:04 01:32:19 32° 262° (W) 01:36:36 436.000
VERMONT LUNAR 21 Dec 02:06:53 02:10:17 45° 151° (SSE) 02:13:40 437.305
AUBIESAT-1 21 Dec 02:09:51 02:13:27 21° 261° (W) 02:17:08 437.475
HORYU 2 21 Dec 02:16:18 02:18:57 15° 94° (E) 02:21:35 437.375
STARS 21 Dec 02:21:21 02:25:40 62° 259° (W) 02:30:01 437.465
PHONESAT 2.4 21 Dec 02:22:27 02:25:51 38° 149° (SSE) 02:29:14 2401.200-2431.200
Oscar 19 21 Dec 02:23:45 02:28:15 31° 291° (WNW) 02:32:44 437.125/150
KKS-1 21 Dec 02:26:11 02:30:14 35° 262° (W) 02:34:18 437.445
Gurwin Techsat 1B 21 Dec 02:36:50 02:42:10 78° 103° (ESE) 02:47:27 435.225
ITAMSAT 1 21 Dec 02:39:47 02:44:52 60° 286° (WNW) 02:49:56 435.822/435.867
AO-7 21 Dec 02:54:44 03:00:43 21° 94° (E) 03:06:39 29.400- 29.500
AIST 1 21 Dec 03:14:58 03:19:08 51° 81° (E) 03:23:16
MOZHAYETS 4 21 Dec 03:38:04 03:42:17 35° 72° (ENE) 03:46:31
VERMONT LUNAR 21 Dec 03:45:13 03:48:37 45° 346° (NNW) 03:52:02 437.305
HORYU 2 21 Dec 03:51:31 03:55:45 41° 288° (WNW) 03:59:59 437.375
PHONESAT 2.4 21 Dec 04:00:57 04:04:30 51° 344° (NNW) 04:08:03 2401.200-2431.200
PRISM 21 Dec 04:15:34 04:17:07 12° 65° (ENE) 04:18:39 437.425
Gurwin Techsat 1B 21 Dec 04:19:33 04:21:24 12° 298° (WNW) 04:23:16 435.225
SO-50 21 Dec 04:27:00 04:29:25 14° 45° (NE) 04:31:49 436.795
AO-7 21 Dec 04:45:43 04:54:03 72° 290° (WNW) 05:02:19 29.400- 29.500
GONETS M04 21 Dec 04:46:58 04:55:14 47° 89° (E) 05:03:30
CUBESAT XI-V 21 Dec 05:03:22 05:06:47 20° 68° (ENE) 05:10:11 437.345
MOZHAYETS 4 21 Dec 05:16:18 05:19:33 19° 266° (W) 05:22:50
JAS-2 21 Dec 05:18:37 05:24:10 77° 285° (WNW) 05:29:19 435.910
VERMONT LUNAR 21 Dec 05:24:08 05:27:22 33° 3° (N) 05:30:36 437.305
STRAND 1 21 Dec 05:24:17 05:28:46 32° 70° (ENE) 05:33:16 437.568
Cubesat XI-IV 21 Dec 05:38:54 05:43:39 33° 98° (E) 05:48:23 437.490
PHONESAT 2.4 21 Dec 05:40:16 05:43:36 33° 2° (N) 05:46:56 2401.200-2431.200
PRISM 21 Dec 05:48:03 05:52:10 51° 260° (W) 05:56:17 437.425
SO-50 21 Dec 06:05:37 06:10:32 80° 242° (WSW) 06:15:26 436.795
CUTE-I 21 Dec 06:11:36 06:16:55 69° 102° (ESE) 06:22:12 437.470
CUBESAT XI-V 21 Dec 06:39:43 06:43:58 34° 263° (W) 06:48:12 437.345
AO-7 21 Dec 06:41:36 06:45:21 14° 309° (NW) 06:49:05 29.400- 29.500
GONETS M04 21 Dec 06:44:20 06:52:07 34° 286° (WNW) 06:59:58
VERMONT LUNAR 21 Dec 07:02:29 07:06:00 68° 20° (NNE) 07:09:31 437.305
STRAND 1 21 Dec 07:03:45 07:07:55 25° 264° (W) 07:12:06 437.568
PHONESAT 2.4 21 Dec 07:19:03 07:22:39 62° 18° (NNE) 07:26:15 2401.200-2431.200
Cubesat XI-IV 21 Dec 07:19:11 07:23:34 27° 292° (WNW) 07:27:57 437.490
BRITE-PL 21 Dec 07:39:09 07:41:46 14° 94° (E) 07:44:27 437.365/2234.400
HO-68 21 Dec 07:39:41 07:44:34 19° 94° (E) 07:49:25 435.675
MaSat-1 21 Dec 07:49:58 07:51:58 24° 110° (ESE) 07:53:54 437.345
CUTE-I 21 Dec 07:53:52 07:56:20 13° 297° (WNW) 07:58:48 437.470
GOMX 1 21 Dec 08:02:03 08:05:25 18° 95° (E) 08:08:53 467.674
AAUSAT CUBESAT 2 21 Dec 08:11:22 08:13:44 15° 93° (E) 08:16:05 437.432
DOVE 4 21 Dec 08:24:07 08:27:58 23° 96° (E) 08:31:57 437.250
CANX-2 21 Dec 08:25:51 08:29:56 40° 98° (E) 08:33:58 2200.000
CUSAT 1 21 Dec 08:32:19 08:34:52 19° 84° (E) 08:37:55 437.405
ANTELSAT 21 Dec 08:38:36 08:39:45 11° 64° (ENE) 08:40:54 437.575/2403.000
VERMONT LUNAR 21 Dec 08:41:14 08:44:07 24° 214° (SW) 08:47:00 437.305
CINEMA 3 21 Dec 08:44:52 08:48:36 22° 95° (E) 08:52:23 145.822/145.860
COMPASS 1 21 Dec 08:45:45 08:49:50 44° 99° (E) 08:53:53 437.405
SEEDS 21 Dec 08:52:05 08:56:22 66° 101° (E) 09:00:36 437.485
CUTE 1.7 + AOD 2 21 Dec 08:56:23 09:00:43 88° 102° (ESE) 09:05:01 437.475
PHONESAT 2.4 21 Dec 08:58:01 09:01:11 28° 213° (SSW) 09:04:21 2401.200-2431.200
DELFI C3 21 Dec 08:58:56 09:02:03 21° 95° (E) 09:05:08 145.870
FUNcube-1 21 Dec 08:59:51 09:01:37 12° 92° (E) 09:03:23 145.935
UWE-3 21 Dec 09:01:21 09:04:12 16° 93° (E) 09:07:04 435.000/436.395/437.385
POPSAT HIP 1 21 Dec 09:05:46 09:07:50 14° 67° (ENE) 09:09:55 437.405
YUBILEINY 21 Dec 09:08:24 09:12:49 15° 65° (ENE) 09:17:13 435.215
RS-15 21 Dec 09:09:57 09:12:35 11° 97° (E) 09:15:11 29.354- 29.394
TIGRISAT 21 Dec 09:10:58 09:14:31 25° 70° (ENE) 09:18:09 435.000
DX 1 21 Dec 09:14:12 09:17:57 28° 97° (E) 09:21:41 434.975-435.025
BRITE-PL 21 Dec 09:15:44 09:20:24 53° 285° (WNW) 09:25:26 437.365/2234.400
AISAT 21 Dec 09:22:02 09:22:41 10° 92° (E) 09:23:20 437.250
HO-68 21 Dec 09:25:39 09:32:43 66° 289° (WNW) 09:39:45 435.675
DANDE 21 Dec 09:26:18 09:29:33 76° 96° (E) 09:33:55 436.750
BUGSAT 1 21 Dec 09:28:05 09:30:59 19° 69° (ENE) 09:33:53 437.445
HUMSAT D 21 Dec 09:28:17 09:30:34 14° 93° (E) 09:32:50 437.325/437.525
DUCHIFAT 1 21 Dec 09:31:45 09:35:17 27° 71° (ENE) 09:38:49 145.980
Oscar 11 21 Dec 09:35:03 09:39:25 73° 102° (ESE) 09:43:45 145.826/435.025
GOMX 1 21 Dec 09:39:01 09:43:35 43° 286° (WNW) 09:48:25 467.674
UNISAT 6 21 Dec 09:39:41 09:43:56 56° 74° (ENE) 09:48:18 437.425
UKube-1 21 Dec 09:44:04 09:48:23 63° 101° (ESE) 09:52:39 .
QB50P2 21 Dec 09:45:22 09:49:18 40° 73° (ENE) 09:53:16 145.880/145.840
AAUSAT CUBESAT 2 21 Dec 09:45:36 09:49:31 37° 287° (WNW) 09:53:24 437.432
POLYITAN 1 21 Dec 09:54:18 09:58:23 52° 74° (ENE) 10:02:29 437.675
NANOSAT C BR1 21 Dec 09:55:52 09:59:57 54° 75° (ENE) 10:04:03 145.865
CUBEBUG 2 21 Dec 09:59:35 10:04:16 87° 102° (ESE) 10:09:02 437.445
DOVE 4 21 Dec 10:01:21 10:05:42 34° 288° (WNW) 10:10:15 437.250
CANX-2 21 Dec 10:03:02 10:05:29 15° 293° (WNW) 10:07:56 2200.000
ZACube-1 21 Dec 10:07:08 10:11:42 76° 102° (ESE) 10:16:18 437.345
QB50P1 21 Dec 10:10:17 10:14:29 83° 77° (ENE) 10:18:42 145.935-145.965
ANTELSAT 21 Dec 10:11:40 10:15:56 60° 259° (W) 10:20:22 437.575/2403.000
VELOX 1 21 Dec 10:11:44 10:15:55 41° 99° (E) 10:20:06 145.980
CUSAT 1 21 Dec 10:14:56 10:17:44 21° 292° (WNW) 10:21:10 437.405
JUGNU 21 Dec 10:17:10 10:17:52 10° 164° (SSE) 10:18:35 437.505
ESTCUBE 1 21 Dec 10:17:46 10:20:54 18° 94° (E) 10:24:00 437.505/2401.250
CINEMA 3 21 Dec 10:21:28 10:25:46 34° 288° (WNW) 10:30:12 145.822/145.860
COMPASS 1 21 Dec 10:23:05 10:25:07 13° 293° (WNW) 10:27:09 437.405
FUNcube-1 21 Dec 10:33:46 10:38:12 54° 285° (WNW) 10:42:40 145.935
DELFI C3 21 Dec 10:33:51 10:37:15 25° 289° (WNW) 10:40:37 145.870
50 SAT 21 Dec 10:34:15 10:38:24 70° 101° (ESE) 10:42:32 437.505
UWE-3 21 Dec 10:36:30 10:40:51 42° 287° (WNW) 10:45:15 435.000/436.395/437.385
O/OREOS (USA 219) 21 Dec 10:37:11 10:41:43 78° 252° (WSW) 10:46:14 437.305
POPSAT HIP 1 21 Dec 10:39:21 10:43:20 42° 261° (W) 10:47:21 437.405
TIGRISAT 21 Dec 10:47:43 10:51:11 23° 265° (W) 10:54:43 435.000
DX 1 21 Dec 10:50:44 10:54:00 21° 291° (WNW) 10:57:16 434.975-435.025
AISAT 21 Dec 10:55:15 10:59:36 58° 286° (WNW) 11:03:58 437.250
CUBEBUG 1 21 Dec 10:58:27 11:02:41 51° 100° (E) 11:06:54 437.445
YUBILEINY 21 Dec 11:02:07 11:10:51 86° 84° (E) 11:19:34 435.215
HUMSAT D 21 Dec 11:02:25 11:06:30 42° 287° (WNW) 11:10:36 437.325/437.525
BUGSAT 1 21 Dec 11:02:46 11:06:17 27° 263° (W) 11:09:46 437.445
DUCHIFAT 1 21 Dec 11:07:59 11:11:06 20° 265° (W) 11:14:13 145.980
RS-15 21 Dec 11:11:58 11:22:50 71° 114° (ESE) 11:33:39 29.354- 29.394
HO-68 21 Dec 11:18:06 11:19:04 10° 306° (NW) 11:20:02 435.675
UNISAT 6 21 Dec 11:20:29 11:21:04 10° 269° (W) 11:21:40 437.425
QB50P2 21 Dec 11:23:18 11:25:22 13° 267° (W) 11:27:27 145.880/145.840
POLYITAN 1 21 Dec 11:34:12 11:34:36 10° 268° (W) 11:35:00 437.675
VELOX 1 21 Dec 11:49:32 11:52:08 16° 293° (WNW) 11:54:43 145.980
ESTCUBE 1 21 Dec 11:53:46 11:57:49 34° 288° (WNW) 12:01:50 437.505/2401.250
TISAT 1 21 Dec 11:57:18 12:01:28 57° 101° (E) 12:05:38 437.305
Oscar 19 21 Dec 11:58:29 12:02:51 29° 69° (ENE) 12:07:15 437.125/150
BEESAT 2 21 Dec 11:59:27 12:02:40 23° 111° (ESE) 12:05:57 435.950
PCSat 21 Dec 11:59:42 12:02:47 16° 104° (ESE) 12:05:51 145.827
ISS 21 Dec 12:00:11 12:02:58 25° 131° (SE) 12:05:45 145.825
JUGNU 21 Dec 12:02:26 12:06:08 17° 174° (S) 12:09:50 437.505
SPROUT 21 Dec 12:03:12 12:07:29 64° 101° (E) 12:11:45 437.525
ITAMSAT 1 21 Dec 12:17:35 12:20:41 16° 65° (ENE) 12:23:46 435.822/435.867
CUBEBUG 1 21 Dec 12:36:54 12:38:34 12° 294° (WNW) 12:40:15 437.445
BEESAT 3 21 Dec 12:55:52 12:59:55 66° 300° (WNW) 13:04:02 437.485
YUBILEINY 21 Dec 13:01:48 13:06:24 16° 281° (W) 13:11:02 435.215
SWISSCUBE 21 Dec 13:06:22 13:10:59 48° 100° (E) 13:15:33 437.505
ITUPSAT 1 21 Dec 13:07:14 13:11:48 44° 99° (E) 13:16:19 437.325
AIST 2 21 Dec 13:07:33 13:11:42 62° 116° (ESE) 13:15:56 435.215
SRMSAT 21 Dec 13:07:47 13:11:12 16° 172° (S) 13:14:37 437.500
HORYU 2 21 Dec 13:14:24 13:14:53 10° 64° (ENE) 13:15:22 437.375
RS-15 21 Dec 13:26:36 13:36:02 32° 317° (NW) 13:45:35 29.354- 29.394
BEESAT 21 Dec 13:31:04 13:35:51 84° 103° (ESE) 13:40:36 436.000
TISAT 1 21 Dec 13:36:00 13:36:46 10° 295° (WNW) 13:37:31 437.305
ISS 21 Dec 13:36:38 13:39:29 26° 325° (NW) 13:42:20 145.825
BEESAT 2 21 Dec 13:37:15 13:40:46 27° 306° (NW) 13:44:21 435.950
Oscar 19 21 Dec 13:37:43 13:42:05 28° 264° (W) 13:46:30 437.125/150
PCSat 21 Dec 13:40:18 13:45:37 59° 299° (WNW) 13:50:59 145.827
JUGNU 21 Dec 13:50:39 13:54:27 17° 184° (S) 13:58:14 437.505
AO-7 21 Dec 13:50:47 13:57:00 24° 58° (ENE) 14:03:14 29.400- 29.500
ITAMSAT 1 21 Dec 13:54:37 13:59:40 54° 259° (W) 14:04:45 435.822/435.867
Gurwin Techsat 1B 21 Dec 13:54:40 13:59:59 88° 76° (ENE) 14:05:19 435.225
AUBIESAT-1 21 Dec 13:55:10 13:59:12 45° 103° (ESE) 14:02:53 437.475
STARS 21 Dec 14:14:54 14:18:51 31° 98° (E) 14:22:46 437.465
KKS-1 21 Dec 14:20:14 14:24:38 55° 101° (E) 14:29:01 437.445
M-CUBED/EXP-1 PRIME 21 Dec 14:21:22 14:25:38 73° 289° (WNW) 14:29:29 437.505
SWISSCUBE 21 Dec 14:45:39 14:48:23 15° 295° (WNW) 14:51:07 437.505
ITUPSAT 1 21 Dec 14:46:18 14:49:17 17° 294° (WNW) 14:52:16 437.325
HORYU 2 21 Dec 14:46:30 14:50:56 67° 258° (WSW) 14:55:24 437.375
AIST 2 21 Dec 14:48:46 14:50:44 13° 313° (NW) 14:52:42 435.215
SRMSAT 21 Dec 14:55:48 14:59:40 18° 182° (S) 15:03:31 437.500
GONETS M04 21 Dec 15:02:37 15:08:18 18° 67° (ENE) 15:13:55
JAS-2 21 Dec 15:25:28 15:32:17 37° 69° (ENE) 15:38:36 435.910
AUBIESAT-1 21 Dec 15:31:42 15:33:38 13° 301° (WNW) 15:35:31 437.475
MOZHAYETS 4 21 Dec 15:39:24 15:40:17 11° 91° (E) 15:41:11
AO-7 21 Dec 15:40:43 15:49:00 71° 255° (WSW) 15:57:21 29.400- 29.500
JUGNU 21 Dec 15:40:55 15:42:43 11° 194° (SSW) 15:44:31 437.505
AIST 1 21 Dec 15:41:16 15:45:17 36° 92° (E) 15:49:18
RS-15 21 Dec 15:49:39 15:53:36 12° 351° (N) 15:57:35 29.354- 29.394
STARS 21 Dec 15:51:49 15:55:06 21° 292° (WNW) 15:58:22 437.465
KKS-1 21 Dec 15:59:01 16:00:46 12° 295° (WNW) 16:02:30 437.445
SRMSAT 21 Dec 16:45:29 16:48:05 13° 192° (SSW) 16:50:42 437.500
GONETS M04 21 Dec 16:57:19 17:06:04 80° 266° (W) 17:14:44
Cubesat XI-IV 21 Dec 16:57:49 17:02:45 40° 71° (ENE) 17:07:41 437.490
JAS-2 21 Dec 17:09:59 17:17:07 41° 262° (W) 17:23:48 435.910
MOZHAYETS 4 21 Dec 17:13:18 17:17:51 60° 285° (WNW) 17:22:22
AIST 1 21 Dec 17:20:28 17:23:03 15° 286° (WNW) 17:25:38
MaSat-1 21 Dec 17:23:13 17:24:38 14° 62° (ENE) 17:26:05 437.345
CUTE-I 21 Dec 17:30:19 17:35:38 82° 76° (ENE) 17:40:58 437.470
PRISM 21 Dec 17:34:48 17:38:21 27° 97° (E) 17:41:51 437.425
STRAND 1 21 Dec 17:39:33 17:42:01 14° 92° (E) 17:44:28 437.568
RS-15 21 Dec 18:05:31 18:12:51 19° 29° (NNE) 18:20:19 29.354- 29.394
HO-68 21 Dec 18:09:05 18:10:43 11° 54° (NE) 18:12:21 435.675
DANDE 21 Dec 18:29:17 18:31:51 12° 65° (ENE) 18:34:28 436.750
ISS 21 Dec 18:31:44 18:33:07 12° 26° (NNE) 18:34:29 145.825
